Location: Casper
(42.8670°N, 106.3130°W)
Time: 11:21:27
(UTC-06:00)

Daily predictions for brighter satellites

Satellite Brightness Start Highest point End
(mag) Time Altitude Azimuth Time Altitude Azimuth Time Altitude Azimuth
Cosmos 1340 Rocket 3.0 21:16:19 10° S 21:20:14 55° E 21:24:13 10° NNE
Spot 1 4.1 21:22:44 10° S 21:26:48 78° WSW 21:31:01 10° NNW
Cosmos 1954 Rocket 4.2 21:23:39 10° SSW 21:28:51 77° WNW 21:34:03 10° NNE
ATLAS 5 CENTAUR R/B 1.9 21:25:51 10° SSW 21:30:19 50° ESE 21:35:10 10° NE
YAOGAN 6 2.6 21:26:51 10° SSE 21:30:29 89° WSW 21:34:10 10° NNW
Cosmos 1726 4.1 21:28:38 10° NE 21:30:49 15° ENE 21:32:59 10° ESE
CZ-4B DEB 2.8 21:28:14 10° S 21:31:10 71° WSW 21:34:09 10° NNW
Cosmos 2084 3.8 21:27:52 10° S 21:31:32 35° ESE 21:35:05 10° NE
Lacrosse 5 3.2 21:27:46 10° NW 21:32:21 32° NNE 21:36:53 10° E
SPOT 5 3.8 21:28:44 10° SE 21:33:05 35° ENE 21:37:38 10° N
Helios 1B rocket 2.7 21:29:02 10° N 21:33:12 76° WNW 21:37:19 10° SSW
Cosmos 1850 Rocket 4.1 21:28:38 10° S 21:33:40 56° ESE 21:38:45 10° NNE
Helios 1A 3.7 21:31:11 10° S 21:35:14 54° W 21:39:20 10° NNW
Cosmos 614 Rocket 4.0 21:30:31 10° SSW 21:35:43 84° ESE 21:40:57 10° NNE
Cosmos 2173 Rocket 4.3 21:30:23 10° N 21:36:22 50° ENE 21:42:22 10° SSE
Cosmos 2237 Rocket 3.2 21:32:43 10° NW 21:38:01 43° WSW 21:43:17 10° S
Cosmos 1842 Rocket 4.5 21:34:10 10° NNW 21:38:26 49° W 21:42:37 10° SSW
Abrixas rocket 3.9 21:39:58 10° WNW 21:42:53 30° N 21:45:50 10° ENE
H-2A R/B 3.0 21:41:25 10° SE 21:46:05 35° ENE 21:50:57 10° N
USA 234 3.4 21:40:01 10° ENE 21:46:19 49° SE 21:52:36 10° SSW
ERS-1 Rocket 3.0 21:42:25 10° SSE 21:47:26 85° ENE 21:52:31 10° NNW
Atlas Centaur 2 3.2 21:47:17 10° SSW 21:48:05 11° S 21:48:54 10° S
Lacrosse 4 Rocket 3.7 21:47:22 10° WSW 21:51:08 30° NW 21:55:01 10° N
Cosmos 1908 3.2 21:47:45 10° N 21:51:38 68° E 21:55:15 11° SSE
Cosmos 1818 3.6 21:46:35 10° NNW 21:52:04 89° NE 21:56:55 13° SSE
Cosmos 1674 2.7 21:48:28 10° S 21:52:11 62° E 21:55:54 10° NNE
Cosmos 2227 Rocket 3.7 21:48:26 10° SW 21:53:45 41° WNW 21:59:05 10° NNE
Cosmos 1184 Rocket 4.2 21:50:37 10° SSW 21:53:49 42° WNW 21:57:04 10° N
Cosmos 1802 Rocket 4.1 21:49:12 10° N 21:55:16 60° E 22:00:59 12° SSE
Cosmos 1741 Rocket 4.0 21:52:38 10° SSW 21:57:58 89° ESE 22:03:18 10° NNE
SL-16 R/B 2.5 21:56:01 10° NNW 22:01:39 66° WSW 22:07:03 11° S
KORONAS-FOTON 3.9 21:59:18 11° S 22:02:54 54° E 22:06:38 10° NNE
Cosmos 1408 Rocket 3.7 22:00:38 11° S 22:04:40 52° E 22:08:52 10° NNE
Tiangong 1 0.6 22:02:32 10° WSW 22:05:20 77° S 22:07:55 11° E
ARGOS 3.2 22:01:49 12° SSE 22:06:50 79° ENE 22:12:16 10° N
Meteor 2-17 Rocket 4.5 22:00:52 10° N 22:07:03 90° W 22:13:12 10° S
Cosmos 1356 Rocket 3.4 22:04:42 10° S 22:08:56 88° ESE 22:13:16 10° N
MetOp-A 4.3 22:03:43 10° S 22:09:04 78° WSW 22:14:28 10° NNW
Cosmos 1076 Rocket 3.6 22:05:35 10° S 22:09:57 84° W 22:14:20 10° N
Terra 2.9 22:15:15 17° ESE 22:18:11 32° ENE 22:22:23 10° N
Cosmos 2221 3.7 22:16:44 10° NNW 22:20:51 41° W 22:24:58 10° SSW
ERBS 3.9 22:22:42 10° NNW 22:25:43 29° NE 22:27:57 15° E
Cosmos 2016 Rocket 4.0 22:20:46 10° N 22:27:05 88° E 22:32:11 16° S
Cosmos 332 Rocket 3.9 22:25:26 10° NNW 22:30:19 65° ENE 22:33:15 24° SE
Cosmos 2151 4.0 22:30:35 23° SE 22:32:08 30° E 22:35:55 10° NNE
RESURS DK-1 2.4 22:28:56 10° NNW 22:33:06 71° ENE 22:35:16 27° SE
Cosmos 1242 Rocket 3.9 22:30:15 10° NNW 22:33:42 37° W 22:36:40 13° SSW
CARTOSAT-1 4.1 22:32:40 24° SE 22:34:50 43° ENE 22:38:56 10° N
Cosmos 1814 Rocket 4.2 22:29:56 10° NNW 22:35:16 63° ENE 22:38:24 24° SE
Cosmos 2227 4.2 22:30:53 10° SSW 22:36:37 85° ESE 22:42:22 10° NNE
BREEZE-M DEB (TANK) 3.8 22:34:52 10° WNW 22:37:07 33° N 22:42:28 10° ENE
SL-08 RB Rocket 4.0 22:34:11 18° S 22:37:32 63° W 22:42:07 10° NNW
Cosmos 1766 Rocket 4.0 22:35:56 10° SSW 22:40:11 58° W 22:44:29 10° N
Cosmos 1486 Rocket 4.4 22:37:20 22° SSE 22:40:22 45° ESE 22:45:24 10° NNE
SPOT 1/Viking Rocket 3.6 22:37:13 20° S 22:40:52 76° WSW 22:46:03 10° NNW
USA 245 4.2 22:40:57 18° SSW 22:43:01 38° W 22:46:45 10° NNW
Meteor 2-2 Rocket 4.3 22:40:17 10° N 22:46:05 85° W 22:50:03 22° S
Cosmos 1328 Rocket 3.5 22:43:18 10° N 22:47:41 88° WSW 22:49:54 28° S
SL-14 R/B 3.2 22:46:09 24° S 22:48:26 88° E 22:52:24 10° N
Cosmos 841 Rocket 3.9 22:43:32 10° N 22:48:40 51° ENE 22:51:18 27° SE
Cosmos 2228 Rocket 3.1 22:44:57 10° N 22:49:35 88° E 22:51:58 28° S
Cosmos 1515 Rocket 3.5 22:46:57 10° N 22:51:18 73° E 22:53:11 33° SSE
Cosmos 1763 Rocket 3.5 22:47:00 10° NNW 22:52:08 69° ENE 22:54:37 30° SE
Cosmos 2233 Rocket 4.1 22:46:19 10° N 22:52:30 62° E 22:55:56 27° SSE
Cosmos 1328 3.8 22:51:24 24° SSW 22:53:45 82° W 22:57:49 10° N
H-2A R/B 2.3 22:54:27 33° SE 22:56:12 57° ENE 23:00:23 10° N
Cosmos 1743 Rocket 3.5 22:54:02 25° S 22:56:34 87° W 23:00:55 10° N
EO 1 Delta rocket 4.3 22:54:28 20° S 22:57:37 56° W 23:02:10 10° NNW
Cosmos 1300 3.0 22:54:34 10° NNW 22:58:20 60° W 23:00:02 30° SSW
Cosmos 1151 Rocket 3.0 22:55:39 10° N 23:00:03 70° E 23:01:42 37° SSE
Cosmos 1626 2.6 23:00:20 39° ESE 23:00:52 42° E 23:04:25 10° NNE
Cosmos 2263 Rocket 2.3 23:03:22 29° S 23:05:58 52° ESE 23:11:23 10° NNE
Cosmos 1726 3.4 23:02:54 10° NNW 23:06:16 34° W 23:08:04 21° SW
SL-19 R/B 4.1 23:05:42 10° NNE 23:11:01 71° ESE 23:13:56 29° S
IGS 5A 3.4 23:10:27 39° S 23:11:56 78° WSW 23:16:07 10° NNW
Cosmos 1447 Rocket 4.5 23:09:13 25° S 23:13:04 80° E 23:19:27 10° N
ATLAS 5 CENTAUR R/B 4.1 23:11:13 10° W 23:15:16 26° NW 23:19:40 10° NNE
Lacrosse 5 2.0 23:10:36 10° NW 23:15:35 60° SW 23:17:19 38° SSE
Abrixas rocket 2.1 23:16:41 10° WNW 23:19:57 78° NNE 23:20:10 72° ENE
PSLV R/B 3.1 23:21:17 70° NNE 23:21:17 70° NNE 23:23:54 10° N
Cosmos 371 Rocket 3.8 23:16:28 10° NNW 23:21:08 51° WSW 23:23:03 32° SSW
Meteor 2-12 Rocket 4.4 23:15:39 10° N 23:21:46 87° E 23:24:38 33° S
Cosmos 1869 4.5 23:21:58 10° NNE 23:25:27 29° ENE 23:25:53 28° E
H-2A R/B 3.4 23:22:02 17° SSW 23:25:27 32° W 23:30:18 10° NNW
Cosmos 1503 Rocket 4.0 23:24:16 39° SSE 23:25:57 59° ESE 23:31:03 10° NNE
USA 234 3.9 23:23:01 10° NE 23:29:23 56° NNW 23:35:43 10° WSW
CZ-4C R/B 3.7 23:28:58 47° SE 23:29:54 60° ENE 23:34:13 10° N
SL-19 R/B 4.3 23:32:30 45° NE 23:32:30 45° NE 23:34:51 10° N
Cosmos 1455 2.1 23:28:29 10° N 23:32:22 71° E 23:32:48 63° SE
Cosmos 2285 Rocket 4.0 23:26:22 10° NNW 23:32:42 73° ENE 23:35:29 36° SE
DELTA 2 DEB (DPAF) 4.1 23:34:15 50° SSE 23:35:21 77° ENE 23:39:50 10° N
Cosmos 1844 Rocket 4.0 23:40:45 22° ESE 23:40:50 22° E 23:44:57 10° NE
Tiangong 1 3.1 23:38:08 10° W 23:39:04 19° W 23:39:04 19° W
Cosmos 2034 Rocket 4.5 23:34:55 10° N 23:41:04 49° ENE 23:43:29 33° SE
ARGOS Delta rocket 4.4 23:35:58 10° NNE 23:41:06 46° E 23:42:08 41° SE
deb Chang Zheng 4 4.0 23:38:19 10° N 23:42:38 60° WNW 23:44:23 33° SW
ALOS 2 4.0 23:43:56 24° E 23:44:57 27° ENE 23:48:39 10° N
Sich 1 3.4 23:44:49 44° ESE 23:45:02 44° E 23:49:07 10° NNE
Cosmos 1943 3.6 23:40:22 10° NNW 23:45:51 53° WSW 23:47:48 36° SSW
CZ-2C R/B 4.1 23:44:03 30° ESE 23:46:17 42° ENE 23:51:37 10° N
CZ-4B R/B 3.6 23:45:37 10° N 23:50:55 77° WNW 23:53:05 36° SSW
CZ-4 R/B 4.3 23:46:38 10° N 23:51:27 59° WNW 23:53:35 31° SW
Cosmos 1703 4.2 23:51:37 34° WSW 23:52:44 43° WNW 23:56:35 10° N
Cosmos 2058 4.1 23:51:16 26° WSW 23:52:58 37° WNW 23:56:55 10° N
Cosmos 1707 Rocket 3.5 23:48:41 10° N 23:53:11 72° E 23:53:51 60° SE
Cosmos 968 Rocket 4.2 23:53:40 34° ESE 23:54:03 35° E 23:58:48 10° NE
CZ-4C R/B 2.8 23:54:51 34° ESE 23:54:51 34° ESE 23:59:58 10° NE
